Location: Stor-Kinsberget
(66.3833°N, 22.3833°E)
Time: 19:41:48
(UTC+00:00)

Daily predictions for brighter satellites

Satellite Brightness Start Highest point End
(mag) Time Altitude Azimuth Time Altitude Azimuth Time Altitude Azimuth
Cosmos 1943 Rocket 2.5 18:12:39 10° NW 18:18:07 64° SW 18:23:34 10° SSE
USA 59 Rocket 1.9 18:17:11 10° W 18:19:38 18° SW 18:22:30 10° S
Cosmos 2061 Rocket 4.1 18:13:27 10° S 18:19:54 81° ESE 18:26:22 10° NNE
Cosmos 1733 4.3 18:17:28 10° SE 18:20:11 22° E 18:22:55 10° NE
Cosmos 2026 Rocket 4.2 18:14:20 10° NNW 18:20:37 58° ENE 18:26:46 10° SE
COSMOS 2428 3.7 18:16:09 10° SSE 18:20:46 26° ESE 18:25:25 10° NE
Cosmos 1356 Rocket 3.7 18:17:01 10° NNW 18:21:13 75° WSW 18:25:24 10° SSE
Cosmos 1726 1.5 18:19:28 10° S 18:22:15 54° ESE 18:25:02 10° NNE
Cosmos 2233 Rocket 4.0 18:17:15 10° S 18:23:23 81° ESE 18:29:37 10° NNE
RESURS DK-1 3.1 18:20:44 10° W 18:24:46 54° N 18:28:48 10° ENE
Cosmos 468 Rocket 3.9 18:19:47 10° SSW 18:24:53 73° SE 18:30:03 10° NE
Cosmos 1328 Rocket 4.3 18:20:50 10° NNW 18:25:03 54° W 18:29:15 10° S
Cosmos 1536 3.6 18:22:46 10° SSE 18:26:07 30° E 18:29:31 10° NNE
Meteor 1-4 Rocket 3.1 18:23:41 10° NNW 18:26:15 41° WSW 18:28:49 10° S
Cosmos 2263 4.5 18:21:38 10° WNW 18:27:26 70° NNE 18:33:10 10° ESE
Cosmos 1674 3.8 18:24:35 10° NNW 18:27:47 40° W 18:30:57 10° SSW
Meteor 1-14 Rocket 4.5 18:23:15 10° SSE 18:28:31 47° E 18:33:50 10° NNE
Okean 1-7 4.4 18:24:55 10° N 18:28:37 26° NE 18:32:18 10° ESE
SL-14 R/B 3.5 18:26:00 10° NNW 18:29:44 52° ENE 18:33:27 10° SE
Cosmos 841 Rocket 3.6 18:25:03 10° SSW 18:30:05 53° ESE 18:35:07 10° NE
SeaSat 1 2.6 18:26:28 10° NE 18:31:26 85° NW 18:36:23 10° SW
Cosmos 1125 Rocket 3.9 18:26:56 10° NW 18:32:05 64° WSW 18:37:13 10° SSE
Cosmos 1464 Rocket 4.3 18:26:06 10° SSE 18:32:07 48° E 18:38:11 10° NNE
Cosmos 2278 Rocket 3.1 18:28:21 10° NW 18:33:46 47° WSW 18:39:09 10° SSE
Terra 1.9 18:31:26 10° SE 18:36:08 71° ENE 18:40:51 10° NNW
Meteor 1-11 Rocket 4.3 18:31:08 10° SSE 18:36:10 35° E 18:41:10 10° NNE
Iridium 4 Rocket 4.2 18:32:16 10° NNW 18:36:32 47° W 18:40:34 10° SSW
Cosmos 1743 2.5 18:34:26 10° SSW 18:38:02 84° ESE 18:41:38 10° NNE
Cosmos 2237 4.3 18:33:26 10° SW 18:39:11 88° SE 18:44:56 10° NE
Ariane Rocket 3.1 18:35:12 10° SE 18:40:13 65° ENE 18:45:16 10° NNW
USA 281 4.2 18:35:15 10° ENE 18:41:33 50° NNW 18:47:50 10° W
Cosmos 540 Rocket 3.5 18:36:38 10° SW 18:41:46 89° NW 18:46:54 10° NE
SPOT 3 Rocket 3.7 18:37:10 10° SE 18:42:16 65° ENE 18:47:23 10° NNW
USA 290 4.1 18:39:36 10° NW 18:42:27 27° WSW 18:45:16 10° S
Cosmos 1862 Rocket 4.2 18:38:40 10° NNW 18:42:51 41° ENE 18:46:56 11° SE
Okean 3 4.1 18:40:37 10° NNW 18:44:31 39° ENE 18:48:15 11° SE
CZ-4B R/B 4.4 18:39:57 10° S 18:45:09 43° W 18:50:17 10° NNW
Genesis I 3.9 18:42:31 10° SSW 18:45:30 27° SE 18:48:32 10° E
ERS-1 Rocket 3.0 18:40:50 10° SSE 18:45:52 87° ENE 18:50:56 10° NNW
Cosmos 1763 Rocket 3.7 18:41:27 10° SW 18:46:32 77° NW 18:51:39 10° NE
Cosmos 1707 Rocket 4.0 18:43:51 10° NNW 18:48:13 48° ENE 18:52:21 11° SE
Cosmos 2016 Rocket 4.5 18:43:26 10° SSW 18:49:30 66° WNW 18:55:39 10° NNE
IRS-1A Rocket 4.5 18:44:33 10° SSE 18:50:23 82° WSW 18:56:07 10° NNW
Cosmos 2034 Rocket 4.3 18:44:58 10° SSE 18:50:49 45° E 18:56:38 10° NNE
SPOT 5 3.1 18:47:17 10° S 18:51:55 66° WSW 18:56:23 10° NNW
Cosmos 1825 4.5 18:56:29 10° NNE 18:57:15 11° NE 18:58:01 10° NE
ATLAS 2AS CENTAUR R/B 2.8 18:50:40 10° WSW 18:57:44 64° SSE 19:04:30 10° E
Meteor 1-21 4.3 18:53:44 10° NNW 18:59:28 78° ENE 19:05:15 10° SSE
Okean 3 Rocket 3.7 18:55:20 10° S 18:59:43 56° E 19:04:06 10° NNE
Cosmos 1656 Rocket 3.8 18:54:01 10° NW 18:59:45 82° SW 19:05:00 12° SE
Cosmos 1697 Rocket 3.4 18:55:33 10° W 19:01:07 55° N 19:06:41 10° ENE
Okean O Rocket 3.0 18:58:17 10° SSW 19:02:27 39° W 19:06:39 10° NNW
H-2A R/B 4.4 18:59:21 10° E 19:02:28 20° NE 19:05:37 10° NNW
MetOp-A 4.3 18:58:35 12° SE 19:02:34 47° NE 19:07:16 10° NNW
IKONOS-2 4.4 18:58:40 10° NNE 19:02:51 67° ESE 19:07:00 10° S
Cosmos 2360 Rocket 2.2 18:57:48 10° SW 19:03:27 76° SE 19:09:06 10° NE
Helios 1A 3.4 18:59:59 10° NNE 19:04:03 64° WNW 19:08:05 10° SW
Landsat 4 4.3 19:01:44 14° ESE 19:04:22 38° NE 19:07:33 10° NNW
Cosmos 2228 Rocket 3.3 19:00:27 10° NNW 19:04:59 62° ENE 19:09:07 12° SE
Cosmos 1340 2.9 19:02:04 10° SW 19:05:20 61° WNW 19:08:36 10° NNE
Cosmos 2297 3.8 19:01:10 10° NW 19:06:51 81° SW 19:11:54 13° SE
Resurs 01 Rocket 3.7 19:03:32 10° SSW 19:07:20 27° W 19:11:10 10° NNW
SL-08 R/B 4.1 19:06:26 10° NNE 19:11:14 59° WNW 19:16:05 10° SW
Cosmos 1656 4.3 19:06:22 10° WNW 19:12:00 56° N 19:17:39 10° E
Aureole 3 Rocket 4.0 19:06:03 10° SSE 19:12:18 47° E 19:16:51 10° NNE
Cosmos 2322 Rocket 2.2 19:06:37 10° SW 19:12:22 88° SE 19:18:07 10° NE
Cosmos 2237 Rocket 3.1 19:07:54 10° SSE 19:12:27 26° ESE 19:17:02 10° NE
MOS 1 Rocket 3.9 19:08:09 10° S 19:13:11 66° WSW 19:18:31 10° NNW
ACS3 Solar Sail 2.7 19:09:34 10° S 19:15:48 52° W 19:22:05 10° NNW
Cosmos 1814 Rocket 4.2 19:11:22 10° S 19:16:27 49° ESE 19:21:30 10° NE
Okean-O 3.8 19:14:22 10° S 19:18:34 42° W 19:22:48 10° NNW
Cosmos 2369 4.3 19:13:48 10° W 19:19:28 60° NNW 19:25:09 10° ENE
Cosmos 2333 Rocket 2.2 19:14:35 10° SW 19:20:23 83° SE 19:26:11 10° NE
CZ-4C R/B 4.0 19:17:27 10° NNE 19:20:51 32° E 19:23:39 14° SSE
ARIANE 5 R/B 3.5 19:19:16 14° ESE 19:22:36 37° NE 19:26:36 10° NNW
Cosmos 1805 3.6 19:21:00 13° SSE 19:23:57 39° E 19:27:25 10° NNE
Cosmos 2219 Rocket 2.2 19:18:42 10° SW 19:24:21 69° SE 19:30:00 10° NE
USA 245 2.9 19:22:42 14° S 19:24:30 45° WSW 19:26:52 10° NNW
Sich 1 3.3 19:20:34 10° S 19:24:40 46° E 19:28:49 10° NNE
DELTA 2 DEB (DPAF) 4.0 19:25:52 10° NNE 19:30:02 64° ESE 19:34:12 10° S
Cosmos 2278 4.1 19:24:49 10° WSW 19:30:30 69° NNW 19:36:11 10° ENE
SL-16 R/B 2.5 19:26:49 10° WSW 19:32:31 72° NNW 19:38:13 10° ENE
USA 267 4.4 19:29:00 13° SSE 19:33:54 29° SSW 19:39:32 10° W
Cosmos 2369 Rocket 2.3 19:29:38 10° NW 19:35:22 72° SW 19:39:53 17° SE
Cosmos 1766 Rocket 4.1 19:33:02 10° SSW 19:37:22 62° WNW 19:41:46 10° NNE
USA 32 4.5 19:32:21 10° NNW 19:37:33 64° W 19:42:43 10° S
Okean 2 3.4 19:35:00 10° NNW 19:38:59 64° ENE 19:41:41 19° SE
Cosmos 1500 Rocket 3.6 19:34:49 10° S 19:39:08 61° E 19:43:27 10° NNE
Cosmos 1980 4.3 19:35:44 10° S 19:40:52 36° ESE 19:46:01 10° NE
Cosmos 1743 Rocket 3.7 19:39:38 12° S 19:43:31 54° E 19:47:47 10° NNE
Cosmos 1315 Rocket 4.3 19:40:10 10° NNW 19:43:47 34° W 19:47:23 10° SSW
Cosmos 2322 3.7 19:39:35 10° SSW 19:45:10 62° SE 19:50:46 10° NE
Cosmos 192 4.3 19:40:25 10° NW 19:45:21 83° SW 19:48:53 19° SE
Spot 2 Rocket 4.0 19:41:59 10° S 19:46:57 56° WSW 19:51:56 10° NNW
Cosmos 1408 2.3 19:46:25 10° N 19:49:03 45° ENE 19:50:04 28° ESE
Cosmos 2344 3.6 19:43:11 10° W 19:50:28 72° S 19:59:22 10° ESE
Cosmos 2333 4.3 19:47:55 10° SW 19:53:43 88° NW 19:59:31 10° NE
Meteor 2-10 4.2 19:48:07 10° SSW 19:53:46 84° ESE 19:59:32 10° NNE
Cosmos 1733 3.1 19:50:45 10° SSW 19:54:13 74° WNW 19:57:41 10° NNE
Cosmos 1766 4.0 19:52:59 23° SE 19:54:25 31° E 19:57:42 10° NNE
Cosmos 1726 4.1 19:52:14 10° WSW 19:54:36 23° NW 19:56:59 10° N
NOSS 3-4 (A) 4.2 19:49:29 10° WNW 19:55:28 46° SW 20:00:35 18° SSE
NOSS 3-4 (C) 4.2 19:49:35 10° WNW 19:55:35 46° SSW 20:00:40 18° SSE
Cosmos 1570 Rocket 4.3 19:51:12 10° S 19:56:12 45° ESE 20:01:13 10° NE
Cosmos 1408 Rocket 3.5 19:51:52 10° SSW 19:56:16 90° ESE 20:00:44 10° NNE
Cosmos 1174 3.8 19:53:10 10° WSW 19:57:48 77° SSE 20:01:33 10° E
Cosmos 1980 Rocket 2.9 19:53:34 10° W 19:59:07 54° N 20:04:38 10° ENE
Cosmos 1975 2.9 19:57:50 19° S 20:00:23 53° E 20:04:13 10° NNE
Cosmos 1943 Rocket 3.9 19:56:44 10° WNW 20:01:04 24° WSW 20:05:23 10° SSW
Cosmos 1536 3.2 19:58:01 10° SSW 20:01:49 61° WNW 20:05:39 10° NNE
RESURS DK-1 2.9 19:58:52 10° WNW 20:02:55 57° NNE 20:06:43 11° E
Cosmos 1818 3.7 19:58:58 10° SW 20:04:14 49° SSE 20:09:32 10° ENE
COSMOS 2428 2.7 19:58:34 10° SSW 20:04:15 66° SE 20:09:58 10° NE
Cosmos 2266 Rocket 4.0 20:00:07 10° NNW 20:06:20 79° ENE 20:10:56 20° SSE
Okean 1-7 3.0 20:02:07 10° NNW 20:06:28 85° ENE 20:09:11 23° SSE
Meteor 2-5 Rocket 4.3 20:00:44 10° NNW 20:06:33 53° NE 20:10:47 19° SE
SeaSat 1 3.4 20:03:56 10° ENE 20:08:42 50° NNW 20:13:27 10° W
SL-16 R/B 3.3 20:07:18 20° SE 20:09:13 24° ESE 20:13:41 10° NE
Cosmos 1908 4.5 20:09:21 20° ESE 20:10:00 21° E 20:12:44 10° NE
Cosmos 2056 Rocket 3.8 20:06:02 10° NW 20:11:12 62° NE 20:15:11 17° ESE
Cosmos 2263 4.5 20:06:01 10° NW 20:11:43 61° SW 20:15:30 21° SSE
Cosmos 841 Rocket 4.0 20:06:47 10° WSW 20:11:57 63° NW 20:17:06 10° NE
ASTEX 1 4.0 20:09:36 21° SE 20:12:30 44° ENE 20:17:09 10° N
Terra 3.2 20:09:47 10° SSW 20:14:06 35° W 20:18:27 10° NNW
Aureole 3 2.9 20:11:01 10° NNW 20:14:15 85° WSW 20:16:09 26° SSE
Cosmos 2278 Rocket 4.5 20:13:11 10° WNW 20:16:39 17° W 20:20:07 10° SW
Cosmos 1464 Rocket 4.5 20:11:08 10° SSW 20:17:27 66° WNW 20:23:51 10° NNE
Cosmos 158 Rocket 4.0 20:13:21 11° SSW 20:17:56 50° ESE 20:22:40 10° NE
Cosmos 1805 Rocket 3.5 20:14:33 10° SSW 20:18:54 85° WNW 20:23:17 10° NNE
Meteor 1-11 Rocket 3.8 20:13:38 10° SSW 20:19:16 78° WNW 20:24:51 10° NNE
Ariane Rocket 4.0 20:14:46 11° SSW 20:19:26 42° W 20:24:17 10° NNW
Cosmos 1862 Rocket 4.1 20:16:32 10° NNW 20:20:50 54° W 20:24:00 17° S
Genesis I 2.9 20:17:35 10° WSW 20:21:01 55° SSE 20:24:13 12° E
Okean 3 3.9 20:17:30 10° NNW 20:21:32 54° W 20:24:21 19° S
Cosmos 1634 Rocket 4.0 20:17:05 11° S 20:23:14 79° ESE 20:29:35 10° NNE
USA 281 4.2 20:19:07 10° E 20:25:21 47° N 20:31:36 10° WNW
Cosmos 1707 Rocket 4.4 20:21:46 10° NNW 20:26:04 47° W 20:29:24 16° SSW
Cosmos 1655 Rocket 4.1 20:20:20 10° NNW 20:26:44 77° ENE 20:31:03 22° SSE
ALOS 2 3.1 20:25:26 23° ESE 20:27:56 49° ENE 20:32:12 10° NNW
Meteor 2-9 Rocket 4.3 20:23:01 10° SSW 20:28:23 76° WNW 20:33:55 10° NNE
Meteor 1-24 Rocket 4.1 20:22:40 10° NNW 20:28:44 65° ENE 20:32:38 22° SE
Landsat 5 3.9 20:25:42 10° NNE 20:29:13 35° E 20:30:17 29° SE
Cosmos 1825 3.1 20:29:08 10° N 20:32:08 30° ENE 20:33:27 23° E
Cosmos 1703 Rocket 3.6 20:27:38 10° NNW 20:32:09 88° WSW 20:34:36 27° SSE
Cosmos 1470 3.3 20:31:10 30° SE 20:32:10 36° E 20:35:36 10° NNE
Cosmos 1633 Rocket 3.2 20:30:16 26° SSE 20:32:33 56° E 20:36:52 10° NNE
Cosmos 2034 Rocket 4.3 20:29:58 10° SSW 20:36:10 67° WNW 20:42:21 10° NNE
USA 215 4.0 20:31:00 10° E 20:36:22 26° SSE 20:41:43 10° SSW
H-2A R/B 2.9 20:34:25 25° SE 20:36:36 53° ENE 20:40:46 10° NNW
Landsat 4 4.2 20:35:20 24° SSW 20:37:00 44° WSW 20:40:17 10° NNW
MetOp-A 4.2 20:36:30 21° S 20:39:23 55° WSW 20:44:12 10° NNW
Cosmos 1666 Rocket 3.5 20:37:49 24° S 20:40:23 70° ESE 20:44:45 10° NNE
Cosmos 2208 Rocket 4.0 20:35:48 11° SSW 20:40:55 62° ESE 20:46:14 10° NE
Cosmos 1470 Rocket 3.9 20:39:32 28° SSE 20:41:30 49° E 20:45:50 10° NNE
Cosmos 2142 Rocket 4.5 20:38:14 20° S 20:42:39 69° E 20:48:47 10° NNE
Cosmos 2228 Rocket 4.4 20:38:49 10° NNW 20:43:00 37° W 20:46:32 14° SSW
EO 1 Delta rocket 4.2 20:38:30 10° NNE 20:43:02 46° E 20:45:09 28° SSE
NOSS 0 Rocket 3.9 20:38:41 10° SW 20:44:54 70° SE 20:51:08 10° NE
Cosmos 1697 Rocket 3.1 20:40:08 10° WNW 20:45:46 63° NNE 20:51:24 10° ESE
Cosmos 1420 Rocket 3.9 20:40:33 10° NW 20:45:46 88° NE 20:48:48 26° SE
Cosmos 2360 Rocket 2.7 20:42:07 10° W 20:47:44 62° NNW 20:53:20 10° ENE
ATLAS 2AS CENTAUR R/B 2.7 20:41:20 10° W 20:48:23 72° S 20:55:09 10° ESE
Cosmos 773 Rocket 4.2 20:46:06 22° S 20:49:17 50° ESE 20:54:25 10° NE
Cosmos 1441 Rocket 2.9 20:48:02 29° SSW 20:49:48 81° ESE 20:53:24 10° NNE
Cosmos 1892 3.1 20:49:57 10° N 20:53:16 43° ENE 20:54:25 31° ESE
CZ-4C R/B 3.7 20:51:17 10° NNE 20:54:55 58° WNW 20:58:28 11° SW
Cosmos 2237 Rocket 2.1 20:50:11 10° SW 20:55:46 68° SE 21:01:23 10° NE
Cosmos 1656 3.7 20:50:24 10° NW 20:56:10 84° NE 21:00:10 21° ESE
Cosmos 2322 Rocket 2.9 20:51:10 10° W 20:56:50 58° NNW 21:02:29 10° ENE
Cosmos 1814 Rocket 4.4 20:53:06 10° WSW 20:58:23 67° NW 21:03:37 10° NE
ARIANE 5 R/B 2.7 20:56:43 29° S 20:58:51 66° WSW 21:03:11 10° NNW
Cosmos 1805 4.2 20:55:30 10° SW 20:59:01 44° WNW 21:02:34 10° NNE
Aureole 3 Rocket 4.2 20:53:12 10° SW 20:59:29 56° WNW 21:04:01 10° NNE
Cosmos 1703 3.0 20:57:21 10° NNW 21:01:01 89° W 21:02:14 40° SSE
ACS3 Solar Sail 4.2 20:56:59 10° WSW 21:01:26 19° WNW 21:05:54 10° NNW
Cosmos 1933 Rocket 4.1 21:00:27 32° SE 21:01:52 43° E 21:05:59 10° NNE
Sich 1 4.0 20:57:59 10° SW 21:02:08 46° WNW 21:06:20 10° NNE
Cosmos 1346 Rocket 3.4 21:01:37 33° SE 21:02:25 38° E 21:06:00 10° NNE
Cosmos 2369 4.4 20:58:43 10° WNW 21:04:22 57° N 21:10:00 10° E
Cosmos 2333 Rocket 2.8 20:59:18 10° W 21:05:02 61° NNW 21:10:45 10° ENE
Cosmos 2219 Rocket 2.6 21:02:48 10° WSW 21:08:30 65° NNW 21:14:09 10° ENE
Cosmos 1371 Rocket 3.9 21:06:33 10° NW 21:11:45 82° SW 21:14:26 29° SE
Cosmos 2279 Rocket 4.0 21:06:50 16° SSW 21:12:02 83° WNW 21:18:18 10° NNE
NOSS 3-3 (C) 4.5 21:09:28 23° S 21:12:31 38° SE 21:18:51 10° ENE
Cosmos 1437 Rocket 4.3 21:09:13 10° NNW 21:12:37 29° NE 21:14:47 17° E
Cosmos 2278 4.5 21:09:42 10° WNW 21:15:17 54° N 21:20:52 10° ENE
SL-16 R/B 3.0 21:11:38 10° W 21:17:14 55° N 21:22:51 10° ENE
DNEPR-1 R/B 4.4 21:10:47 10° W 21:17:50 71° SSW 21:22:29 16° ESE
Spot 4 3.9 21:16:00 31° S 21:18:14 74° WSW 21:23:02 10° NNW
Cosmos 2369 Rocket 3.5 21:13:54 10° NW 21:18:43 29° WSW 21:21:39 19° SSW
Cosmos 1408 3.6 21:18:27 10° NW 21:20:39 23° W 21:21:07 21° WSW
Cosmos 1300 3.4 21:21:30 31° ESE 21:21:53 32° E 21:25:03 10° NNE
Cosmos 521 Rocket 4.5 21:15:41 10° W 21:22:14 82° SSW 21:28:47 10° ESE
CZ-2C R/B 3.9 21:17:48 10° NNE 21:22:22 56° ESE 21:24:06 34° SSE
Cosmos 1980 3.6 21:18:48 10° SW 21:24:31 85° SE 21:30:15 10° NE
Cosmos 1758 4.2 21:23:50 30° ESE 21:24:31 32° E 21:27:56 10° NNE
Cosmos 1624 Rocket 4.0 21:20:01 10° NW 21:25:22 74° SW 21:27:57 31° SSE
Spot 1 3.8 21:22:18 10° NNE 21:26:28 77° ESE 21:28:05 35° S
H-2A R/B 4.3 21:24:53 10° NE 21:27:06 13° E 21:28:45 11° ESE
SL-16 R/B 4.4 21:22:01 10° ENE 21:27:09 28° NNE 21:32:21 10° NW
SL-24 DEB 4.3 21:23:23 10° N 21:27:56 72° W 21:30:15 28° SSW
Cosmos 1766 3.7 21:27:22 24° SW 21:29:23 55° WNW 21:33:02 10° NNE
Cosmos 2322 4.0 21:23:46 10° WSW 21:29:26 69° NNW 21:35:07 10° ENE
NOSS 3-3 (A) 4.3 21:25:46 21° SSW 21:29:28 43° SE 21:36:02 10° ENE
Cosmos 2242 Rocket 3.7 21:25:00 10° NNW 21:29:33 75° WSW 21:31:26 35° S
Cosmos 1378 Rocket 3.7 21:26:57 10° NNW 21:31:18 67° ENE 21:33:05 34° SE
Cosmos 1953 4.2 21:30:32 16° E 21:31:30 17° E 21:34:07 10° NE
PSLV R/B 4.3 21:30:57 10° NNE 21:34:53 45° E 21:35:53 37° SE
ATLAS CENTAUR R/B 2.2 21:36:42 29° ESE 21:36:42 29° ESE 21:39:13 10° E
Cosmos 1975 4.1 21:32:51 11° SW 21:36:20 36° WNW 21:40:00 10° N
Cosmos 1570 Rocket 4.3 21:32:59 10° SW 21:38:17 71° NW 21:43:34 10° NE
Cosmos 1174 3.5 21:35:30 10° W 21:39:46 84° S 21:41:56 23° ESE
RESURS DK-1 2.2 21:36:42 10° WNW 21:40:48 76° SW 21:42:14 39° SE
Cosmos 1745 Rocket 4.1 21:34:33 10° NNW 21:40:49 72° ENE 21:44:29 27° SSE
Cosmos 783 Rocket 4.5 21:38:42 27° SSW 21:41:33 66° SE 21:46:46 10° NE
Cosmos 1980 Rocket 2.5 21:38:07 10° WNW 21:43:46 68° NNE 21:49:22 10° ESE
Cosmos 1908 3.0 21:43:17 44° SSW 21:44:18 78° WNW 21:47:50 10° NNE
SeaSat 1 3.5 21:41:00 10° E 21:45:42 47° N 21:50:26 10° WNW
Cosmos 1607 4.4 21:44:29 27° S 21:47:26 42° SE 21:53:24 10° ENE
Cosmos 1818 3.5 21:42:02 10° WSW 21:47:31 76° S 21:53:02 10° E
COSMOS 2428 3.1 21:42:55 10° WSW 21:48:39 67° NNW 21:54:25 10° ENE
Cosmos 1452 Rocket 3.5 21:44:16 10° NW 21:49:36 82° NE 21:52:49 25° SE
Meteor 2-5 Rocket 4.1 21:44:19 10° NNW 21:50:10 59° W 21:53:14 28° S
ASTEX 1 3.8 21:48:59 28° SSW 21:51:25 55° W 21:56:15 10° N
SL-16 R/B 2.2 21:49:08 25° SSW 21:52:30 64° SE 21:58:08 10° NE
Cosmos 2056 Rocket 3.7 21:48:16 10° NW 21:53:21 55° WSW 21:55:27 33° S
Cosmos 1331 Rocket 4.0 21:48:23 10° NW 21:53:39 83° NE 21:56:49 25° SE
Cosmos 1455 3.4 21:55:40 23° E 21:55:59 23° E 21:58:44 10° NE
Genesis I 2.8 21:53:18 10° W 21:56:49 63° S 21:57:29 50° SE
Cosmos 2360 4.2 21:52:26 10° NW 21:58:11 75° SW 22:01:27 27° SE
Cosmos 158 Rocket 4.3 21:54:37 10° WSW 21:59:27 62° NW 22:04:20 10° NE
Cosmos 2344 4.0 21:56:58 10° WNW 22:04:14 50° SW 22:10:20 21° SSE
CZ-2C R/B 3.8 21:59:37 10° ESE 22:04:21 37° NE 22:09:06 10° NNW
ALOS 2 3.1 22:02:50 33° SSW 22:04:22 47° W 22:08:39 10° NNW
Landsat 5 3.8 22:00:50 10° NNE 22:04:32 52° WNW 22:06:25 26° SW
In-Cosmos 22 Rocket 4.4 21:59:01 10° NNW 22:04:35 66° ENE 22:08:01 25° SE
SL-24 R/B 4.1 22:01:41 10° NNE 22:06:07 65° ESE 22:07:31 40° S
Cosmos 1825 2.1 22:02:54 10° NNW 22:06:10 51° W 22:06:34 47° SW
Cosmos 1470 3.4 22:05:39 27° WSW 22:07:20 47° WNW 22:10:57 10° NNE
Cosmos 1110 Rocket 3.9 22:02:11 10° NW 22:07:24 85° SW 22:10:06 29° SE
USA 281 3.6 22:02:51 10° ESE 22:09:21 67° NNE 22:15:54 10° NW
Cosmos 1633 Rocket 4.2 22:07:14 16° WSW 22:10:27 41° WNW 22:14:39 10° NNE
Spot 2 4.5 22:09:16 36° S 22:10:59 60° WSW 22:15:48 10° NNW
H-2A R/B 3.2 22:10:17 33° SW 22:11:34 42° W 22:15:38 10° NNW
Meteor 1-24 Rocket 4.4 22:06:01 10° NNW 22:11:46 48° W 22:14:47 26° SSW
Meteor 1-22 Rocket 4.2 22:12:20 31° S 22:15:08 77° ESE 22:20:42 10° NNE
Meteor 1-15 Rocket 4.3 22:12:14 31° S 22:15:13 76° ESE 22:21:09 10° NNE
Cosmos 1733 Rocket 3.4 22:14:47 37° SSE 22:16:03 51° E 22:20:15 10° NNE
Cosmos 1943 3.6 22:16:29 33° S 22:18:31 47° ESE 22:23:55 10° NE
Cosmos 1470 Rocket 4.4 22:16:35 20° SW 22:19:23 46° WNW 22:23:44 10° NNE
Meteor 1-21 Rocket 4.3 22:14:10 10° NNW 22:20:09 89° ENE 22:23:19 29° SSE
USA 215 3.6 22:14:42 10° E 22:20:45 38° SSE 22:26:46 10° SW
PSLV R/B 4.1 22:17:55 10° NNE 22:22:29 52° ESE 22:24:02 36° SSE
Cosmos 839 Rocket 4.1 22:17:38 10° WSW 22:25:04 77° SSE 22:31:22 10° ENE
Cosmos 1892 3.3 22:24:26 10° NNW 22:27:37 35° W 22:28:04 34° WSW
Cosmos 1674 Rocket 3.7 22:24:15 10° NNW 22:28:37 63° W 22:30:00 40° SSW
Cosmos 1869 Rocket 3.5 22:27:03 37° SSW 22:28:42 76° WNW 22:33:03 10° NNE
Cosmos 1697 Rocket 2.6 22:24:20 10° NW 22:29:58 72° SW 22:33:16 26° SE
Cosmos 1709 Rocket 4.0 22:23:53 10° NNW 22:30:17 88° WSW 22:33:49 29° SSE
Cosmos 773 Rocket 4.3 22:26:08 12° WSW 22:31:08 67° NW 22:36:27 10° NE
NOSS 0 Rocket 4.2 22:25:16 10° WSW 22:31:32 71° NNW 22:37:48 10° ENE
Cosmos 1538 Rocket 4.0 22:29:28 32° SSW 22:31:56 69° SE 22:37:18 10° NE
Cosmos 2360 Rocket 2.9 22:26:51 10° WNW 22:32:26 55° N 22:37:59 10° E
Cosmos 1553 Rocket 4.0 22:29:44 30° S 22:33:02 76° ESE 22:39:18 10° NNE
Cosmos 1328 3.9 22:32:15 10° NNW 22:36:04 58° W 22:36:55 46° SSW
Cosmos 1346 Rocket 3.4 22:36:30 29° WSW 22:38:08 49° WNW 22:41:54 10° NNE
Meteor 2-10 Rocket 3.6 22:35:37 32° SSW 22:38:12 88° WNW 22:43:46 10° NNE
ATLAS 2AS CENTAUR R/B 2.8 22:32:08 10° WNW 22:38:52 52° SSW 22:43:40 19° SE
Cosmos 1656 4.2 22:34:11 10° NW 22:39:34 44° WSW 22:41:33 32° SSW
Cosmos 1933 Rocket 4.2 22:37:30 26° SW 22:39:40 50° WNW 22:43:55 10° NNE
Cosmos 2237 Rocket 2.6 22:34:22 10° WSW 22:40:00 65° NNW 22:45:38 10° ENE
Cosmos 1025 Rocket 2.9 22:37:00 10° NNW 22:41:23 82° WSW 22:42:53 41° S
Cosmos 2322 Rocket 2.9 22:35:57 10° WNW 22:41:37 58° NNE 22:47:15 10° E
Cosmos 2221 Rocket 3.8 22:38:27 10° NNW 22:42:53 57° W 22:44:19 38° SSW
Cosmos 2074 Rocket 4.3 22:40:54 10° NNW 22:47:08 63° ENE 22:51:47 18° SE
Cosmos 1992 Rocket 4.2 22:42:55 10° NW 22:48:10 72° NE 22:53:23 10° SE
Cosmos 923 Rocket 4.3 22:46:17 34° S 22:48:14 53° ESE 22:53:20 10° NE
Cosmos 1437 Rocket 2.6 22:44:42 10° NNW 22:48:34 75° WSW 22:49:28 50° S
Cosmos 2369 3.7 22:43:16 10° NW 22:49:01 87° NE 22:54:44 10° SE
Meteor 1-11 4.2 22:44:05 10° NNW 22:49:52 88° ENE 22:53:11 27° SSE
Cosmos 2333 Rocket 2.9 22:44:17 10° WNW 22:50:02 59° NNE 22:55:43 10° E
Cosmos 2219 Rocket 3.0 22:47:31 10° WNW 22:53:07 55° N 22:58:42 10° E
Cosmos 1300 3.1 22:55:16 36° WSW 22:56:17 49° WNW 22:59:44 10° NNE
Cosmos 1680 Rocket 3.9 22:54:53 33° S 22:56:55 50° ESE 23:02:03 10° NE
Cosmos 724 4.3 22:54:45 25° SW 22:58:10 61° SSE 23:03:57 10° ENE
Cosmos 2278 4.0 22:54:22 10° WNW 23:00:04 71° NNE 23:05:44 10° ESE
Cosmos 1758 3.6 22:58:56 36° SW 23:00:12 56° WNW 23:03:59 10° NNE
CZ-2D R/B 4.4 22:57:57 10° NE 23:01:29 17° ENE 23:05:02 10° ESE
SL-16 R/B 2.5 22:56:18 10° WNW 23:02:00 68° NNE 23:07:41 10° ESE
NOSS 3-3 (C) 4.1 22:56:52 11° WSW 23:02:41 64° SSE 23:09:59 10° E
H-2A R/B 2.7 22:59:32 10° NNE 23:03:49 46° ESE 23:05:28 31° SSE
Cosmos 1953 2.2 23:05:32 45° S 23:06:37 72° ESE 23:10:31 10° NNE
Cosmos 1980 4.3 23:03:20 10° W 23:08:59 59° NNW 23:14:39 10° ENE
SL-16 R/B 3.4 23:03:48 10° ESE 23:09:45 49° NE 23:15:45 10° NNW
Cosmos 1975 Rocket 2.9 23:06:56 10° NNW 23:11:18 85° WSW 23:13:04 36° SSE
Meteor 1-12 Rocket 4.3 23:09:19 28° SW 23:12:24 74° WNW 23:18:06 10° NNE
ATLAS CENTAUR R/B 1.1 23:11:25 38° SW 23:12:42 64° SSE 23:16:40 10° E
Cosmos 2322 4.5 23:08:41 10° WNW 23:14:16 55° N 23:19:51 10° E
MINOTAUR 4 R/B 3.6 23:11:58 10° NNE 23:14:18 55° NW 23:14:18 55° NW
Iridium 51 4.5 23:11:46 10° N 23:16:00 70° E 23:17:39 34° SSE
RESURS DK-1 3.6 23:14:38 10° WNW 23:17:44 25° WSW 23:17:44 25° WSW
NOSS 3-3 (A) 4.1 23:13:39 10° WSW 23:19:44 68° SSE 23:27:08 10° E
Cosmos 2084 Rocket 4.4 23:19:50 29° SSE 23:19:50 29° SSE 23:23:23 10° E
Cosmos 1174 3.9 23:17:45 10° WNW 23:21:12 43° SW 23:21:12 43° SW
SeaSat 1 2.8 23:17:57 10° ESE 23:22:51 69° NNE 23:27:46 10° NW
Cosmos 1302 Rocket 4.0 23:17:49 10° NW 23:23:02 63° WSW 23:25:50 27° SSE
ADEOS II 4.4 23:21:04 10° NE 23:24:28 17° E 23:27:51 10° ESE
Cosmos 2184 Rocket 4.0 23:18:19 10° NNW 23:24:37 86° ENE 23:29:04 21° SSE
S3M 3.9 23:21:51 29° SSW 23:25:14 88° ESE 23:31:29 10° NNE
SL-19 R/B 4.3 23:19:57 10° NNE 23:25:35 84° ESE 23:28:39 29° SSW
Cosmos 1980 Rocket 2.2 23:22:18 10° NW 23:27:52 63° SW 23:31:53 19° SSE
Cosmos 1295 Rocket 4.4 23:23:17 10° NNW 23:29:28 87° ENE 23:33:44 21° SSE
Cosmos 1455 2.0 23:29:05 48° SW 23:29:51 66° WNW 23:33:14 10° NNE
Cosmos 1818 3.5 23:25:33 10° W 23:31:03 72° SSW 23:36:31 10° ESE
Cosmos 1452 Rocket 4.2 23:26:33 10° NW 23:31:24 38° WSW 23:33:03 30° SSW
Genesis I 4.5 23:29:11 10° W 23:30:45 22° W 23:30:45 22° W
COSMOS 2428 3.5 23:27:55 10° WNW 23:33:35 55° N 23:39:15 10° E
IRIDIUM 106 4.3 23:31:29 29° S 23:34:11 82° E 23:39:27 10° N
Cosmos 1607 3.9 23:28:33 14° WSW 23:34:12 72° SSE 23:40:34 10° E
SL-16 R/B 2.5 23:31:03 10° WSW 23:36:44 68° NNW 23:42:25 10° ENE
Cosmos 405 Rocket 2.6 23:37:16 42° SSE 23:38:10 61° ESE 23:41:39 10° NNE
Helios 1A Rocket 2.6 23:37:35 35° SSE 23:39:07 83° WSW 23:42:56 10° NNW
IDEFIX/ARIANE 42P 3.9 23:34:27 10° NNE 23:39:08 32° E 23:42:56 14° SSE
Cosmos 1825 4.4 23:38:19 10° WNW 23:39:16 11° W 23:39:41 11° W
Cosmos 2112 Rocket 4.1 23:37:08 30° SSW 23:39:45 71° SE 23:45:05 10° NE
MOZ.5/SAFIR/RUBIN 5/SL-8 3.7 23:39:25 28° S 23:41:54 74° WSW 23:46:39 10° NNW
CZ-2C R/B 2.5 23:40:58 22° SSE 23:44:21 82° WSW 23:49:34 10° NNW
GENESIS II 3.9 23:43:45 44° SW 23:44:37 60° S 23:48:07 10° E
Cosmos 1536 Rocket 3.7 23:40:53 10° NNW 23:45:23 74° ENE 23:48:25 20° SSE
Cosmos 1300 Rocket 3.8 23:45:54 30° S 23:47:57 61° ESE 23:52:18 10° NNE
Cosmos 540 Rocket 4.5 23:43:55 10° NW 23:48:54 48° NNE 23:53:52 10° ESE
Cosmos 1603 3.7 23:45:57 26° SW 23:49:16 79° SE 23:54:56 10° NE
Meteor 2-11 Rocket 4.4 23:46:16 10° NNW 23:52:21 71° W 23:56:14 23° S
Cosmos 2237 4.1 23:47:45 10° NW 23:53:30 84° SW 23:59:13 10° SE
Cosmos 1733 Rocket 3.8 23:51:47 24° WSW 23:53:55 42° WNW 23:58:03 10° NNE
Cosmos 1763 Rocket 4.2 23:49:22 10° NW 23:54:23 55° NNE 23:59:26 10° ESE
